User: anonymous   Login
Location: Barnston
(51.8500°N, 0.4000°E)
Time: 12:02:08
(UTC+00:00)
Language:

Cosmos 2237 Rocket - Orbit

View from above orbital plane
View from above orbital plane
View from above satellite
View from above satellite

Ground track
Ground track

The orbit data is extracted from the following two-line orbital elements,

1 22566U 93016B   24056.91699445 -.00000164  00000-0 -59839-4 0  9995
2 22566  71.0106 334.9998 0010086 359.6117   0.4996 14.15111163597081
Epoch (UTC): 25 February 2024 22:00:28
Eccentricity: 0.0010086
inclination: 71.0106°
perigee height: 834 km
apogee height: 849 km
right ascension of ascending node: 334.9998°
argument of perigee: 359.6117°
revolutions per day: 14.15111163
mean anomaly at epoch: 0.4996°
orbit number at epoch: 59708

The dashed part of the orbit path shows where the satellite is in the earth's shadow,  

DLR